User: anonymous   Login
Location: Unspecified
(0.0000°N, 0.0000°E)
Time: 20:46:24
(UTC+00:00)
Language:

STARLINK-4181 - Orbit

View from above orbital plane
View from above orbital plane
View from above satellite
View from above satellite

Ground track
Ground track

The orbit is defined by the following mean orbital elements,

1 52882U          26145.37695404 +.00000000 +00000-0 +90528-5 0 00003
2 52882  53.2117  29.4310 0001073  97.5311 262.5803 15.08826429    03
Epoch (UTC): 25 May 2026 09:02:48
Eccentricity: 0.0001073
inclination: 53.2117°
perigee height: 539 km
apogee height: 541 km
right ascension of ascending node: 29.4310°
argument of perigee: 97.5311°
revolutions per day: 15.08826429
mean anomaly at epoch: 262.5803°

The dashed part of the orbit path shows where the satellite is in the earth's shadow,  

DLR